Palm Springs, CA

6:31 AM PDT on July 26, 2016 (GMT -0700)
Palm Springs International

Weather History for KPSP - January, 2012

Change the Weather History Date:

Saturday, January 21, 2012

  Actual Average Record
Temperature  
Mean Temperature 68 °F 58 °F  
Max Temperature 82 °F 70 °F 92 °F (1944)
Min Temperature 53 °F 46 °F 24 °F (1937)
Degree Days  
Heating Degree Days 0 7  
Month to date heating degree days 89 171  
Since 1 July heating degree days 516 557  
Cooling Degree Days 3 0  
Month to date cooling degree days 5 0  
Year to date cooling degree days 5 0  
Growing Degree Days 18 (Base 50)    
Moisture  
Dew Point 28 °F    
Average Humidity 35    
Maximum Humidity 64    
Minimum Humidity 6    
Precipitation  
Precipitation 0.00 in 0.03 in 1.69 in (2010)
Month to date precipitation 0.00 0.83  
Year to date precipitation 0.00 0.83  
Since 1 July precipitation 1.48  
Snow  
Snow 0.00 in - - ()
Month to date snowfall 0.0  
Year to date snowfall 0.0  
Snow Depth 0.00 in    
Sea Level Pressure  
Sea Level Pressure 29.81 in    
Wind  
Wind Speed 5 mph (NW)    
Max Wind Speed 40 mph    
Max Gust Speed 66 mph    
Visibility 8 miles    
Events Rain    
T = Trace of Precipitation, MM = Missing Value Source: NWS Daily Summary

Daily Weather History Graph

Daily Weather History Graph

Search for Another Location

Airport or City:

Trip Planner

Search our weather history database for the weather conditions in past years. The results will help you decide how hot, cold, wet, or windy it might be!

Date:

Astronomy

Jan. 21, 2012 Rise Set
Actual Time 6:49 AM PST 5:05 PM PST
Civil Twilight 6:22 AM PST 5:32 PM PST
Nautical Twilight 5:51 AM PST 6:02 PM PST
Astronomical Twilight 5:22 AM PST 6:32 PM PST
Moon 5:21 AM PST (1/21) 3:48 PM PST (1/21)
Length of Visible Light 11h 10m
Length of Day
10h 16m
Waning Crescent, 3% of the Moon is Illuminated
Jan 21
Waning Crescent
Jan 22
New
Jan 30
First Quarter
Feb 7
Full
Feb 14
Last Quarter

Hourly Weather History & Observations

Time (PST) Temp. Dew Point Humidity Pressure Visibility Wind Dir Wind Speed Gust Speed Precip Events Conditions
12:53 AM 57.0 °F 33.1 °F 40% 29.95 in 10.0 mi Calm Calm - N/A   Partly Cloudy
1:53 AM 54.0 °F 34.0 °F 47% 29.92 in 10.0 mi SE 5.8 mph - N/A   Clear
2:53 AM 57.0 °F 32.0 °F 39% 29.90 in 10.0 mi NW 5.8 mph - N/A   Clear
3:53 AM 55.9 °F 33.1 °F 42% 29.86 in 10.0 mi NE 3.5 mph - N/A   Clear
4:53 AM 57.9 °F 35.1 °F 42% 29.86 in 10.0 mi Calm Calm - N/A   Overcast
5:53 AM 54.0 °F 37.0 °F 53% 29.88 in 10.0 mi Calm Calm - N/A   Overcast
6:53 AM 54.0 °F 37.9 °F 55% 29.89 in 10.0 mi ESE 5.8 mph - N/A   Overcast
7:53 AM 54.0 °F 41.0 °F 62% 29.92 in 8.0 mi Calm Calm - N/A   Overcast
8:53 AM 55.0 °F 41.0 °F 59% 29.93 in 8.0 mi Calm Calm - N/A   Overcast
9:53 AM 57.0 °F 41.0 °F 55% 29.92 in 8.0 mi Calm Calm - N/A   Mostly Cloudy
10:53 AM 63.0 °F 43.0 °F 48% 29.87 in 10.0 mi Calm Calm - N/A   Scattered Clouds
11:53 AM 72.0 °F 42.1 °F 34% 29.80 in 10.0 mi ENE 13.8 mph - N/A   Scattered Clouds
12:53 PM 75.9 °F 34.0 °F 22% 29.75 in 10.0 mi ENE 9.2 mph 18.4 mph N/A   Clear
1:20 PM 75.2 °F 32.0 °F 21% 29.70 in 10.0 mi East 25.3 mph 33.4 mph N/A   Clear
1:31 PM 75.2 °F 30.2 °F 19% 29.70 in 10.0 mi NE 17.3 mph 27.6 mph N/A   Partly Cloudy
1:48 PM 80.6 °F 17.6 °F 10% 29.68 in 3.0 mi West 19.6 mph 65.6 mph N/A   Haze
1:53 PM 81.0 °F 7.0 °F 6% 29.68 in 2.5 mi West 15.0 mph 34.5 mph N/A   Haze
2:01 PM 82.4 °F 1.4 °F 4% 29.69 in 1.8 mi West 40.3 mph 58.7 mph 0.00 in Rain Light Rain
2:08 PM 78.8 °F 12.2 °F 8% 29.69 in 2.0 mi WNW 16.1 mph 58.7 mph 0.00 in Rain Light Rain
2:17 PM 80.6 °F 6.8 °F 6% 29.69 in 5.0 mi South 10.4 mph 41.4 mph 0.00 in   Haze
2:26 PM 75.2 °F 21.2 °F 13% 29.70 in 6.0 mi Variable 5.8 mph 29.9 mph 0.00 in   Haze
2:53 PM 79.0 °F 6.1 °F 6% 29.70 in 10.0 mi West 13.8 mph 38.0 mph 0.00 in   Scattered Clouds
3:53 PM 72.0 °F 21.9 °F 15% 29.78 in 10.0 mi WNW 15.0 mph 34.5 mph N/A   Clear
4:09 PM 69.8 °F 24.8 °F 18% 29.76 in 8.0 mi NNW 36.8 mph 57.5 mph N/A   Squalls
4:46 PM 69.8 °F 24.8 °F 18% 29.75 in 9.0 mi WNW 28.8 mph 62.1 mph N/A   Squalls
4:53 PM 69.1 °F 27.0 °F 21% 29.74 in 9.0 mi NNW 33.4 mph 51.8 mph N/A   Scattered Clouds
5:37 PM 69.8 °F 24.8 °F 18% 29.72 in 8.0 mi NNW 40.3 mph 57.5 mph 0.00 in Rain Light Rain
5:53 PM 69.1 °F 27.0 °F 21% 29.75 in 10.0 mi NNW 43.7 mph 49.5 mph 0.00 in Rain Light Rain
6:53 PM 66.2 °F 30.2 °F 26% 29.81 in 10.0 mi NW 34.5 mph 54.1 mph N/A   Clear
7:53 PM 66.9 °F 24.1 °F 20% 29.83 in 10.0 mi NW 31.1 mph 41.4 mph N/A   Clear
8:53 PM 62.1 °F 30.9 °F 31% 29.87 in 10.0 mi NNW 26.5 mph 38.0 mph N/A   Clear
9:53 PM 62.1 °F 27.0 °F 26% 29.91 in 10.0 mi WNW 20.7 mph 39.1 mph N/A   Clear
10:53 PM 57.9 °F 30.0 °F 35% 29.95 in 10.0 mi South 8.1 mph - N/A   Clear
11:53 PM 57.9 °F 30.0 °F 35% 29.99 in 10.0 mi SSE 6.9 mph - N/A   Clear